Starlink 32175

operational
NORAD ID: 60339 Int'l Des: 2024-136 Owner: SPXS Country: US Constellation: starlink
LEOCIRCULAR

Starlink 32175について

説明を読み込み中...

リアルタイム位置

3D地球を読み込み中...

次回通過

高度履歴

Altitude vs Time

uPlot chart will show altitude changes over time

軌道要素

1 60339U 24136L 25261.12486984 .00005889 00000-0 21092-3 0 9992
2 60339 53.1593 157.2499 0001018 46.1256 313.9829 15.30180381 63240
Epoch: Sep 18, 2025 • Age: 19 hours

現在のステータス

高度 482.4 km
速度 7.62 km/s
衛星直下点 -25.04°S, 170.17°E
打ち上げ日 Aug 2, 2024
運用期間 1.1 years
タイプ internet

技術仕様

分類 Payload
質量 730.00 kg
乾燥質量 700.00 kg
総質量 730.00 kg
長さ 0.30 m
直径 4.10 m
スパン 29.00 m
形状 Box + pan
製造者 SPXS
バスタイプ Starlink V2M
フェーズステータス In Orbit
所有者/国 SPXS/US

大規模コンステレーション

Loading constellations...